Weather History for La Crosse, WI

Change the Weather History Date:

Thursday, December 6, 2012

  Actual Average Record
Temperature  
Mean Temperature 42 °F 25 °F  
Max Temperature 48 °F 32 °F 55 °F (1939)
Min Temperature 36 °F 18 °F -16 °F (1972)
Degree Days  
Heating Degree Days 23 40  
Month to date heating degree days 153 234  
Since 1 July heating degree days 1642 1734  
Cooling Degree Days 0 0  
Month to date cooling degree days 0 0  
Year to date cooling degree days 1083 782  
Moisture  
Dew Point 32 °F    
Average Humidity 64    
Maximum Humidity 76    
Minimum Humidity 52    
Precipitation  
Precipitation 0.03 in 0.06 in 0.78 in (1875)
Month to date precipitation 0.15 0.33  
Year to date precipitation 24.85 32.03  
Snow  
Snow 0.00 in 0.40 in 2.20 in (1996)
Month to date snowfall 0.0 2.2  
Since 1 July snowfall 0.1 6.5  
Snow Depth 0.00 in    
Sea Level Pressure  
Sea Level Pressure 29.93 in    
Wind  
Wind Speed 10 mph (SW)    
Max Wind Speed 21 mph    
Max Gust Speed 26 mph    
Visibility 10 miles    
Events Rain    
T = Trace of Precipitation, MM = Missing Value Source: NWS Daily Summary

Daily Weather History Graph

Daily Weather History Graph

Search for Another Location

Airport:

Trip Planner

Search our weather history database for the weather conditions in past years. The results will help you decide how hot, cold, wet, or windy it might be!

Date:

Astronomy

Dec. 06, 2012 Rise Set
Actual Time 7:25 AM CST 4:27 PM CST
Civil Twilight 6:52 AM CST 5:00 PM CST
Nautical Twilight 6:16 AM CST 5:36 PM CST
Astronomical Twilight 5:41 AM CST 6:11 PM CST
Moon No Moon Rise 12:06 PM CST (12/6)
Length of Visible Light 10h 07m
Length of Day
9h 02m
Waning Gibbous, 49% of the Moon is Illuminated
Dec 6
Waning Gibbous
Dec 13
New
Dec 19
First Quarter
Dec 28
Full
Jan 4
Last Quarter

Hourly Weather History & Observations

Time (CST) Temp. Windchill Dew Point Humidity Pressure Visibility Wind Dir Wind Speed Gust Speed Precip Events Conditions
12:53 AM 39.0 °F 31.4 °F 24.1 °F 55% 30.05 in 10.0 mi SSE 12.7 mph - N/A   Overcast
1:53 AM 39.9 °F 31.4 °F 26.1 °F 58% 30.00 in 10.0 mi SSE 16.1 mph 25.3 mph N/A   Overcast
2:53 AM 39.9 °F 32.1 °F 28.0 °F 63% 30.00 in 10.0 mi South 13.8 mph - N/A   Mostly Cloudy
3:53 AM 39.9 °F 32.5 °F 30.0 °F 68% 29.98 in 10.0 mi South 12.7 mph 20.7 mph N/A   Overcast
4:53 AM 39.9 °F 31.4 °F 30.0 °F 68% 29.96 in 10.0 mi South 16.1 mph 23.0 mph N/A   Overcast
5:53 AM 39.9 °F 32.1 °F 30.0 °F 68% 29.95 in 10.0 mi South 13.8 mph - N/A   Overcast
6:53 AM 41.0 °F 32.5 °F 30.9 °F 67% 29.94 in 10.0 mi South 17.3 mph 23.0 mph N/A   Overcast
7:53 AM 41.0 °F 34.7 °F 30.9 °F 67% 29.94 in 10.0 mi South 10.4 mph - N/A   Mostly Cloudy
8:53 AM 42.1 °F 37.1 °F 32.0 °F 67% 29.92 in 10.0 mi South 8.1 mph - N/A   Overcast
9:53 AM 43.0 °F 36.8 °F 32.0 °F 65% 29.91 in 10.0 mi SSE 11.5 mph - N/A   Overcast
10:53 AM 42.1 °F 38.4 °F 36.0 °F 79% 29.90 in 10.0 mi South 5.8 mph - 0.02 in Rain Light Rain
11:53 AM 45.0 °F 40.1 °F 37.9 °F 76% 29.88 in 10.0 mi South 9.2 mph - 0.01 in   Scattered Clouds
12:53 PM 46.0 °F 41.0 °F 37.0 °F 71% 29.85 in 10.0 mi SW 10.4 mph - N/A   Overcast
1:53 PM 46.9 °F - 37.0 °F 68% 29.84 in 10.0 mi SW 8.1 mph - N/A   Partly Cloudy
2:53 PM 46.9 °F - 37.0 °F 68% 29.85 in 10.0 mi West 5.8 mph - N/A   Clear
3:53 PM 46.0 °F 42.5 °F 37.0 °F 71% 29.86 in 10.0 mi WSW 6.9 mph - N/A   Clear
4:53 PM 43.0 °F 36.0 °F 33.1 °F 68% 29.89 in 10.0 mi West 13.8 mph - N/A   Clear
5:53 PM 41.0 °F 38.0 °F 34.0 °F 76% 29.91 in 10.0 mi WNW 4.6 mph - N/A   Clear
6:53 PM 39.0 °F 34.0 °F 32.0 °F 76% 29.93 in 10.0 mi WNW 6.9 mph - N/A   Clear
7:53 PM 37.0 °F 31.6 °F 30.9 °F 79% 29.94 in 10.0 mi WNW 6.9 mph - N/A   Partly Cloudy
8:53 PM 37.0 °F 31.6 °F 30.9 °F 79% 29.95 in 10.0 mi NW 6.9 mph - N/A   Mostly Cloudy
9:53 PM 39.0 °F 34.0 °F 30.9 °F 73% 29.95 in 10.0 mi NW 6.9 mph - N/A   Overcast
10:53 PM 37.9 °F 32.1 °F 30.0 °F 73% 29.95 in 10.0 mi NW 8.1 mph - N/A   Overcast
11:53 PM 37.0 °F 31.6 °F 30.0 °F 76% 29.97 in 10.0 mi NW 6.9 mph - N/A   Overcast